Location: Newark
(11.0000°N, 122.6717°E)
Time: 18:19:51
(UTC+00:00)

STARLINK 1035 - Pass Details

Date: 17 December 2019
Orbit: 426 x 428 km, 53.0° (Epoch: 22 January)

Event Time Altitude Azimuth Distance (km) Brightness Sun altitude
Exits shadow 21:25:33 10° 269° (W) 1,615 5.4 -8.9°
Reaches altitude 10° 21:25:40 10° 267° (W) 1,592 5.4 -8.8°
Maximum altitude 21:27:26 13° 238° (WSW) 1,405 5.4 -8.4°
Drops below altitude 10° 21:29:10 10° 208° (SSW) 1,582 5.9 -8.0°
Sets 21:32:13 0° 180° (S) 2,444 7.3 -7.3°
